Regional Weather Roundup
Issued by NWS

Home | Current Version | Previous Version | Text Only | Print | Product List | Glossary On
Versions: 1 2 3 4 5 6 7 8 9 10 11 12 13 14 15 16 17 18 19 20 21 22 23 24 25 26 27 28 29 30 31 32 33 34 35 36 37 38 39 40 41 42 43 44 45 46 47 48 49 50
000
ASUS43 KTOP 302259
RWRKS

WEATHER ROUNDUP FOR KANSAS
NATIONAL WEATHER SERVICE GOODLAND KS
600 PM CDT SUN AUG 30 2015

NOTE:  "FAIR" INDICATES FEW OR NO CLOUDS BELOW 12,000 FEET WITH NO
SIGNIFICANT WEATHER AND/OR OBSTRUCTIONS TO VISIBILITY.

KSZ001>006-013>018-027>032-041>047-310000-
NORTHWEST KANSAS

CITY           SKY/WX    TMP DP  RH WIND       PRES   REMARKS
GOODLAND       SUNNY     89  40  17 S21       29.97F HAZE
HAYS           SUNNY     90  52  27 SE10G17   29.95S
HILL CITY      SUNNY     93  46  19 S9        29.94F HAZE
RUSSELL        SUNNY     86  57  37 SE10      29.94F
$$

KSZ061>065-074>080-084>089-310000-
SOUTHWEST KANSAS

CITY           SKY/WX    TMP DP  RH WIND       PRES   REMARKS
DODGE CITY     SUNNY     88  45  22 MISG      29.97F
ELKHART          N/A     88  56  33 SE9         N/A
GARDEN CITY    SUNNY     88  49  25 SE13      29.97F
GREAT BEND     SUNNY     86  57  37 SE13      29.95S
LIBERAL        SUNNY     91  43  18 SE9       29.98F
$$

KSZ066>073-081>083-090>101-310000-
SOUTHEAST KANSAS

CITY           SKY/WX    TMP DP  RH WIND       PRES   REMARKS
CHANUTE        PTSUNNY   82  70  66 E3        29.96F
COFFEYVILLE    MOSUNNY   85  72  65 N3        29.93F
HUTCHINSON     MOSUNNY   83  64  52 SE10      29.97F
NEWTON         SUNNY     82  63  51 S7        29.99F
PARSONS        MOSUNNY   85  73  67 CALM      29.96F
WICHITA INTL   MOSUNNY   83  63  50 S6        29.95F
WICHITA JABRA  MOSUNNY   83  66  56 CALM      29.96F
$$

KSZ007>012-019>026-033>040-048>060-102>105-310000-
NORTHEAST KANSAS

CITY           SKY/WX    TMP DP  RH WIND       PRES   REMARKS
CONCORDIA      SUNNY     76  65  68 SE13      29.97F
EMPORIA        MOSUNNY   80  65  59 E8        29.97F
LAWRENCE       PTSUNNY   84  69  60 SE8       29.96F
MANHATTAN      SUNNY     80  68  66 E8        29.96F
OLATHE IND     SUNNY     82  69  64 SE8       29.97F
OLATHE EXE     MOSUNNY   81  69  67 SE7       29.96F
SALINA         MOSUNNY   83  65  54 SE12      29.96F
TOPEKA BILLARD PTSUNNY   82  70  66 E7        29.96F
TOPEKA FORBES  MOSUNNY   84  68  58 E6        29.97F
$$


USA.gov is the U.S. government's official web portal to all federal, state and local government web resources and services.